Location: Unspecified
(0.0000°N, 0.0000°E)
Time: 08:23:43
(UTC+00:00)

Vanguard 2 - Pass Details

Date: 14 December 2018
Orbit: 553 x 2939 km, 32.9° (Epoch: 18 March)

Event Time Altitude Azimuth Distance (km) Brightness Sun altitude
Rises 08:02:53 0° 259° (WSW) 6,784 11.9 29.2°
Reaches altitude 10° 08:09:53 10° 242° (WSW) 5,733 11.7 30.8°
Maximum altitude 08:20:27 19° 204° (SSW) 4,682 11.7 33.1°
Drops below altitude 10° 08:29:31 10° 165° (SSE) 4,813 12.3 35.1°
Sets 08:34:39 0° 147° (SSE) 5,386 12.6 36.2°
